timestamp,surface_pressure_avg,surface_temp_avg,battery_voltage,lat,long
2017-12-20 00:00:00+00:00,354.0663,4.8,12.65,47.84626,-54.09684
2017-12-20 00:10:00+00:00,353.2396,4.8,12.65,47.84626,-54.09684
2017-12-20 00:20:00+00:00,350.6479,4.75,12.73,47.84626,-54.09684
2017-12-20 00:30:00+00:00,349.4495,4.79,12.73,47.84626,-54.09684
2017-12-20 00:40:00+00:00,350.9863,4.8,12.73,47.84626,-54.09684
2017-12-20 00:50:00+00:00,348.6946,4.8,12.73,47.84626,-54.09684
2017-12-20 01:00:00+00:00,348.0112,4.8,12.65,47.84626,-54.09684
2017-12-20 01:10:00+00:00,347.153,4.8,12.65,47.84626,-54.09684
2017-12-20 01:20:00+00:00,347.2146,4.8,12.73,47.84626,-54.09684
2017-12-20 01:30:00+00:00,345.0696,4.81,12.73,47.84626,-54.09684
2017-12-20 01:40:00+00:00,340.5413,4.89,12.73,47.84626,-54.09684
2017-12-20 01:50:00+00:00,337.163,4.9,12.73,47.84626,-54.09684
2017-12-20 02:00:00+00:00,333.0514,4.9,12.65,47.84626,-54.09684
2017-12-20 02:10:00+00:00,328.5496,4.9,12.65,47.84626,-54.09684
2017-12-20 02:20:00+00:00,325.4847,4.89,12.73,47.84626,-54.09684
2017-12-20 02:30:00+00:00,320.2029,4.8,12.73,47.84626,-54.09684
2017-12-20 02:40:00+00:00,316.9747,4.8,12.73,47.84626,-54.09684
2017-12-20 02:50:00+00:00,310.988,4.8,12.73,47.84626,-54.09684
2017-12-20 03:00:00+00:00,303.2197,4.8,12.65,47.84626,-54.09684
2017-12-20 03:10:00+00:00,294.7964,4.8,12.65,47.84626,-54.09684
2017-12-20 03:20:00+00:00,289.3964,4.8,12.73,47.84626,-54.09684
2017-12-20 03:30:00+00:00,283.0513,4.8,12.73,47.84626,-54.09684
2017-12-20 03:40:00+00:00,276.8748,4.86,12.73,47.84626,-54.09684
2017-12-20 03:50:00+00:00,268.7664,4.89,12.73,47.84626,-54.09684
2017-12-20 04:00:00+00:00,262.5381,4.9,12.65,47.84626,-54.09684
2017-12-20 04:10:00+00:00,255.0764,4.9,12.65,47.84626,-54.09684
2017-12-20 04:20:00+00:00,249.7847,4.89,12.73,47.84626,-54.09684
2017-12-20 04:30:00+00:00,244.5881,4.88,12.73,47.84626,-54.09684
2017-12-20 04:40:00+00:00,236.3381,4.8,12.73,47.84626,-54.09684
2017-12-20 04:50:00+00:00,229.4564,4.7,12.73,47.84626,-54.09684
2017-12-20 05:00:00+00:00,226.8665,4.78,12.65,47.84626,-54.09684
2017-12-20 05:10:00+00:00,222.6431,4.83,12.65,47.84626,-54.09684
2017-12-20 05:20:00+00:00,216.3998,4.9,12.73,47.84626,-54.09684
2017-12-20 05:30:00+00:00,215.3065,4.95,12.73,47.84626,-54.09684
2017-12-20 05:40:00+00:00,214.3131,5.0,12.73,47.84626,-54.09684
2017-12-20 05:50:00+00:00,210.9664,5.0,12.73,47.84626,-54.09684
2017-12-20 06:00:00+00:00,208.0064,4.7,12.65,47.84626,-54.09684
2017-12-20 06:10:00+00:00,207.6664,4.61,12.65,47.84626,-54.09684
2017-12-20 06:20:00+00:00,205.5481,4.66,12.73,47.84626,-54.09684
2017-12-20 06:30:00+00:00,201.5098,4.67,12.73,47.84626,-54.09684
2017-12-20 06:40:00+00:00,201.3481,4.7,12.73,47.84626,-54.09684
2017-12-20 06:50:00+00:00,203.9498,4.75,12.73,47.84626,-54.09684
2017-12-20 07:00:00+00:00,205.7265,4.74,12.65,47.84626,-54.09684
2017-12-20 07:10:00+00:00,208.5581,4.7,12.65,47.84626,-54.09684
2017-12-20 07:20:00+00:00,215.4765,4.6,12.65,47.84626,-54.09684
2017-12-20 07:30:00+00:00,226.0847,4.6,12.65,47.84626,-54.09684
2017-12-20 07:40:00+00:00,231.9347,4.6,12.73,47.84626,-54.09684
2017-12-20 07:50:00+00:00,231.0381,4.6,12.73,47.84626,-54.09684
2017-12-20 08:00:00+00:00,232.6497,4.6,12.65,47.84626,-54.09684
2017-12-20 08:10:00+00:00,236.7897,4.6,12.65,47.84626,-54.09684
2017-12-20 08:20:00+00:00,238.2197,4.6,12.65,47.84626,-54.09684
2017-12-20 08:30:00+00:00,240.4315,4.6,12.65,47.84626,-54.09684
2017-12-20 08:40:00+00:00,247.3714,4.6,12.73,47.84626,-54.09684
2017-12-20 08:50:00+00:00,255.1364,4.6,12.73,47.84626,-54.09684
2017-12-20 09:00:00+00:00,261.858,4.5,12.65,47.84626,-54.09684
2017-12-20 09:10:00+00:00,265.9331,4.2,12.65,47.84626,-54.09684
2017-12-20 09:20:00+00:00,269.7048,4.19,12.65,47.84626,-54.09684
2017-12-20 09:30:00+00:00,270.3147,4.0,12.65,47.84626,-54.09684
2017-12-20 09:40:00+00:00,272.8448,3.98,12.73,47.84626,-54.09684
2017-12-20 09:50:00+00:00,280.5781,4.16,12.73,47.84626,-54.09684
2017-12-20 10:00:00+00:00,288.4464,3.88,12.65,47.84626,-54.09684
2017-12-20 10:10:00+00:00,292.538,3.6,12.65,47.84626,-54.09684
2017-12-20 10:20:00+00:00,301.9414,3.7,12.65,47.84626,-54.09684
2017-12-20 10:30:00+00:00,311.9981,3.83,12.65,47.84626,-54.09684
2017-12-20 10:40:00+00:00,318.2663,3.86,12.65,47.84626,-54.09684
2017-12-20 10:50:00+00:00,326.3979,3.95,12.73,47.84626,-54.09684
2017-12-20 11:00:00+00:00,340.793,4.08,12.65,47.84626,-54.09684
2017-12-20 11:10:00+00:00,349.7147,4.17,12.65,47.84626,-54.09684
2017-12-20 11:20:00+00:00,356.6013,4.2,12.65,47.84626,-54.09684
2017-12-20 11:30:00+00:00,370.4796,4.1,12.65,47.84626,-54.09684
2017-12-20 11:40:00+00:00,377.2679,4.04,12.65,47.84626,-54.09684
2017-12-20 11:50:00+00:00,377.8962,3.9,12.65,47.84626,-54.09684
2017-12-20 12:00:00+00:00,383.8846,3.99,12.65,47.84626,-54.09684
2017-12-20 12:10:00+00:00,389.5596,4.13,12.65,47.84626,-54.09684
2017-12-20 12:20:00+00:00,390.2213,4.19,12.65,47.84626,-54.09684
2017-12-20 12:30:00+00:00,393.8162,4.2,12.65,47.84626,-54.09684
2017-12-20 12:40:00+00:00,398.8513,4.28,12.65,47.84626,-54.09684
2017-12-20 12:50:00+00:00,400.4746,4.3,12.65,47.84626,-54.09684
2017-12-20 13:00:00+00:00,396.6796,4.3,12.65,47.84626,-54.09684
2017-12-20 13:10:00+00:00,398.088,4.4,12.65,47.84626,-54.09684
2017-12-20 13:20:00+00:00,397.0762,4.4,12.65,47.84626,-54.09684
2017-12-20 13:30:00+00:00,390.2996,4.23,12.65,47.84626,-54.09684
2017-12-20 13:40:00+00:00,386.2879,4.47,12.73,47.84626,-54.09684
2017-12-20 13:50:00+00:00,384.9846,4.61,12.73,47.84626,-54.09684
2017-12-20 14:00:00+00:00,382.0062,4.58,12.65,47.84626,-54.09684
2017-12-20 14:10:00+00:00,373.8629,4.47,12.65,47.84626,-54.09684
2017-12-20 14:20:00+00:00,369.9662,4.5,12.73,47.84626,-54.09684
2017-12-20 14:30:00+00:00,373.5496,4.5,12.73,47.84626,-54.09684
2017-12-20 14:40:00+00:00,366.723,4.4,12.73,47.84626,-54.09684
2017-12-20 14:50:00+00:00,357.3296,4.31,12.73,47.84626,-54.09684
2017-12-20 15:00:00+00:00,353.1813,4.38,12.73,47.84626,-54.09684
2017-12-20 15:10:00+00:00,350.1363,4.4,12.65,47.84626,-54.09684
2017-12-20 15:20:00+00:00,340.173,4.4,12.73,47.84626,-54.09684
2017-12-20 15:30:00+00:00,332.3063,4.4,12.73,47.84626,-54.09684
2017-12-20 15:40:00+00:00,326.463,4.5,12.73,47.84626,-54.09684
2017-12-20 15:50:00+00:00,317.7247,4.5,12.73,47.84626,-54.09684
2017-12-20 16:00:00+00:00,303.348,4.4,12.73,47.84626,-54.09684
2017-12-20 16:10:00+00:00,298.033,4.4,12.65,47.84626,-54.09684
2017-12-20 16:20:00+00:00,295.9964,4.4,12.73,47.84626,-54.09684
2017-12-20 16:30:00+00:00,290.6814,4.38,12.73,47.84626,-54.09684
2017-12-20 16:40:00+00:00,281.218,4.2,12.73,47.84626,-54.09684
2017-12-20 16:50:00+00:00,279.4064,4.4,12.73,47.84626,-54.09684
2017-12-20 17:00:00+00:00,275.7297,4.33,12.65,47.84626,-54.09684
2017-12-20 17:10:00+00:00,263.6481,4.3,12.65,47.84626,-54.09684
2017-12-20 17:20:00+00:00,253.6314,4.36,12.65,47.84626,-54.09684
2017-12-20 17:30:00+00:00,253.0114,4.4,12.65,47.84626,-54.09684
2017-12-20 17:40:00+00:00,250.0464,4.4,12.65,47.84626,-54.09684
2017-12-20 17:50:00+00:00,241.9164,4.46,12.65,47.84626,-54.09684
2017-12-20 18:00:00+00:00,234.7631,4.5,12.65,47.84626,-54.09684
2017-12-20 18:10:00+00:00,226.8731,4.5,12.65,47.84626,-54.09684
2017-12-20 18:20:00+00:00,217.8814,4.4,12.65,47.84626,-54.09684
2017-12-20 18:30:00+00:00,213.8998,4.4,12.65,47.84626,-54.09684
2017-12-20 18:40:00+00:00,216.6998,4.4,12.65,47.84626,-54.09684
2017-12-20 18:50:00+00:00,212.8381,4.4,12.73,47.84626,-54.09684
2017-12-20 19:00:00+00:00,213.6681,4.36,12.65,47.84626,-54.09684
2017-12-20 19:10:00+00:00,221.9798,4.35,12.65,47.84626,-54.09684
2017-12-20 19:20:00+00:00,221.4115,4.37,12.65,47.84626,-54.09684
2017-12-20 19:30:00+00:00,217.3131,4.3,12.65,47.84626,-54.09684
2017-12-20 19:40:00+00:00,222.9197,4.3,12.65,47.84626,-54.09684
2017-12-20 19:50:00+00:00,226.9064,4.3,12.65,47.84626,-54.09684
2017-12-20 20:00:00+00:00,222.8181,4.3,12.65,47.84626,-54.09684
2017-12-20 20:10:00+00:00,228.8015,4.3,12.65,47.84626,-54.09684
2017-12-20 20:20:00+00:00,238.1648,4.3,12.65,47.84626,-54.09684
2017-12-20 20:30:00+00:00,234.2397,4.3,12.65,47.84626,-54.09684
2017-12-20 20:40:00+00:00,232.1931,4.3,12.65,47.84626,-54.09684
2017-12-20 20:50:00+00:00,237.4931,4.3,12.65,47.84626,-54.09684
2017-12-20 21:00:00+00:00,246.0781,4.3,12.65,47.84626,-54.09684
2017-12-20 21:10:00+00:00,250.4131,4.3,12.65,47.84626,-54.09684
2017-12-20 21:20:00+00:00,256.1881,4.35,12.65,47.84626,-54.09684
2017-12-20 21:30:00+00:00,260.9998,4.37,12.65,47.84626,-54.09684
2017-12-20 21:40:00+00:00,264.4114,4.3,12.65,47.84626,-54.09684
2017-12-20 21:50:00+00:00,273.8414,4.3,12.65,47.84626,-54.09684
2017-12-20 22:00:00+00:00,284.0063,4.3,12.65,47.84626,-54.09684
2017-12-20 22:10:00+00:00,286.9698,4.35,12.57,47.84626,-54.09684
2017-12-20 22:20:00+00:00,290.2447,4.39,12.65,47.84626,-54.09684
2017-12-20 22:30:00+00:00,299.7796,4.39,12.65,47.84626,-54.09684
2017-12-20 22:40:00+00:00,309.4547,4.37,12.65,47.84626,-54.09684
2017-12-20 22:50:00+00:00,313.998,4.4,12.65,47.84626,-54.09684
2017-12-20 23:00:00+00:00,321.9012,4.44,12.65,47.84626,-54.09684
2017-12-20 23:10:00+00:00,327.668,4.46,12.57,47.84626,-54.09684
2017-12-20 23:20:00+00:00,331.938,4.48,12.65,47.84626,-54.09684
2017-12-20 23:30:00+00:00,335.798,4.47,12.65,47.84626,-54.09684
2017-12-20 23:40:00+00:00,344.5896,4.47,12.65,47.84626,-54.09684
2017-12-20 23:50:00+00:00,353.1113,4.47,12.65,47.84626,-54.09684
